Location: Geroldsau
(48.7259°N, 8.2466°E)
Time: 11:07:26
(UTC+00:00)

SeaSat 1 - Pass Details

Date: 20 June 2021
Orbit: 745 x 746 km, 108.0° (Epoch: 27 July)

Event Time Altitude Azimuth Distance (km) Brightness Sun altitude
Rises 02:28:06 0° 31° (NNE) 3,200 7.9 -7.5°
Reaches altitude 10° 02:30:24 10° 35° (NE) 2,272 6.7 -7.2°
Maximum altitude 02:35:18 63° 116° (ESE) 837 2.8 -6.7°
Drops below altitude 10° 02:40:10 10° 198° (SSW) 2,257 4.4 -6.1°
Enters shadow 02:41:19 - 200° (SSW) 2,718 4.8 -6.0°
